Mcnabs Island,

2:38 PM ADT on September 20, 2017 (GMT -0300)
Mcnabs Island

Weather History for CXMI - May, 2014

Change the Weather History Date:

Tuesday, May 6, 2014

  Actual Average Record
Temperature  
Mean Temperature 47 °F -  
Max Temperature 54 °F - - ()
Min Temperature 39 °F - - ()
Degree Days  
Heating Degree Days 18    
Moisture  
Dew Point 35 °F    
Average Humidity 67    
Maximum Humidity 85    
Minimum Humidity 45    
Precipitation  
Precipitation 0.00 in - - ()
Sea Level Pressure  
Sea Level Pressure 29.71 in    
Wind  
Wind Speed 6 mph ()    
Max Wind Speed 8 mph    
Max Gust Speed 20 mph    
T = Trace of Precipitation, MM = Missing Value Source: Averaged Metar Reports

Daily Weather History Graph

Daily Weather History Graph

Search for Another Location

Airport or City:

Trip Planner

Search our weather history database for the weather conditions in past years. The results will help you decide how hot, cold, wet, or windy it might be!

Date:

Astronomy

May. 06, 2014 Rise Set
Actual Time 5:57 AM ADT 8:24 PM ADT
Civil Twilight 5:24 AM ADT 8:57 PM ADT
Nautical Twilight 4:43 AM ADT 9:38 PM ADT
Astronomical Twilight 3:57 AM ADT 10:25 PM ADT
Moon 12:12 PM ADT (5/6) 1:39 AM ADT (5/6)
Length of Visible Light 15h 32m
Length of Day
14h 27m
Waxing Crescent, 45% of the Moon is Illuminated
May 6
Waxing Crescent
May 7
First Quarter
May 14
Full
May 21
Last Quarter
May 28
New

Hourly Weather History & Observations

Time (ADT) Temp. Windchill Dew Point Humidity Pressure Visibility Wind Dir Wind Speed Gust Speed Precip Events Conditions
12:00 AM 41.5 °F 36.4 °F 33.4 °F 73% 29.58 in - NW 8.1 mph - N/A   Unknown
1:00 AM 42.1 °F 37.7 °F 33.1 °F 70% 29.59 in - NW 6.9 mph - N/A   Unknown
2:00 AM 41.5 °F 36.4 °F 31.6 °F 68% 29.60 in - NW 8.1 mph 19.6 mph N/A   Unknown
3:00 AM 41.5 °F 36.4 °F 31.3 °F 67% 29.60 in - NW 8.1 mph - N/A   Unknown
4:00 AM 41.7 °F 37.3 °F 33.3 °F 72% 29.61 in - NW 6.9 mph - N/A   Unknown
5:00 AM 40.1 °F 35.3 °F 34.0 °F 79% 29.62 in - NW 6.9 mph - N/A   Unknown
6:00 AM 41.7 °F 37.3 °F 34.3 °F 75% 29.64 in - NW 6.9 mph - N/A   Unknown
7:00 AM 42.3 °F 39.4 °F 34.5 °F 74% 29.66 in - NW 4.6 mph - N/A   Unknown
9:00 AM 44.8 °F 41.0 °F 34.9 °F 68% 29.69 in - NW 6.9 mph - N/A   Unknown
10:00 AM 47.5 °F - 34.9 °F 62% 29.70 in - NW 6.9 mph - N/A   Unknown
11:00 AM 50.9 °F - 35.2 °F 55% 29.71 in - NW 6.9 mph - N/A   Unknown
12:00 PM 54.1 °F - 34.2 °F 47% 29.72 in - NW 8.1 mph - N/A   Unknown
1:00 PM 52.5 °F - 31.8 °F 45% 29.72 in - NW 8.1 mph - N/A   Unknown
2:00 PM 52.2 °F - 33.3 °F 49% 29.73 in - NNW 6.9 mph - N/A   Unknown
3:00 PM 52.0 °F - 34.0 °F 50% 29.74 in - North 5.8 mph - N/A   Unknown
4:00 PM 50.2 °F - 34.3 °F 55% 29.76 in - NNW 4.6 mph - N/A   Unknown
5:00 PM 48.9 °F - 36.1 °F 61% 29.78 in - North 4.6 mph - N/A   Unknown
6:00 PM 48.0 °F - 36.3 °F 64% 29.79 in - NNW 3.5 mph - N/A   Unknown
7:00 PM 46.4 °F - 39.7 °F 78% 29.81 in - North 1.2 mph - N/A   Unknown
8:00 PM 44.4 °F - 37.8 °F 77% 29.81 in - Calm Calm - N/A   Unknown
9:00 PM 40.8 °F 37.8 °F 34.7 °F 79% 29.83 in - East 4.6 mph - N/A   Unknown
10:00 PM 41.7 °F - 37.4 °F 85% 29.86 in - South 1.2 mph - N/A   Unknown
11:00 PM 39.9 °F 37.8 °F 34.5 °F 81% 29.87 in - NE 3.5 mph - N/A   Unknown